Flag for Germany Weather past 2 weeks in Waiblingen, Baden-Württemberg, Germany

Now
48 °F

Partly sunny.


Feels Like: 44 °F
Forecast: 41 / 63 °F
Wind: 9 mph from Northeast

Location: Stuttgart-Echterdingen


UV Index: 3 (Moderate)

Visibility: N/A


Pressure: 29.86 "Hg

Humidity: 76%

Dew point: 41 °F

Location of WaiblingenLocation

Historic Weather in Waiblingen

°F

Waiblingen temperature yesterday

Maximum temperature yesterday: 48 °F (at 7:20 AM)
Minimum temperature yesterday: 39 °F (at 7:20 PM)
Average temperature yesterday: 43 °F

Past Weeks' High & Low Weather Summary

 TemperatureHumidityPressure
High70 °F (Apr 4, 3:20 PM)100% (Apr 19, 3:50 AM)30.36 "Hg (Apr 19, 3:50 AM)
Low32 °F (Apr 16, 6:20 AM)21% (Apr 17, 5:20 PM)29.68 "Hg (Apr 4, 2:50 PM)
Average51 °F63%30.08 "Hg
* Reported Apr 4 1:20 PM — Apr 19 1:50 PM, Waiblingen, Weather by CustomWeather, © 2014

Note: Actual official high and low records may vary slightly from our data, if they occured in-between our weather recording intervals... More about our weather records

Advertising

Historic Weather Conditions — Data for Previous 24 hours

 ConditionsComfort  
Time TempWeatherWind HumidityBarometerVisibility
1:50 PM
Apr 19
48 °FPartly sunny.10 mph71%29.86 "HgN/A
1:20 PM46 °FPartly sunny.10 mph76%29.86 "HgN/A
12:50 PM46 °FBroken clouds.7 mph76%29.89 "HgN/A
12:20 PM45 °FBroken clouds.13 mph81%29.89 "HgN/A
11:50 AM45 °FPartly sunny.12 mph81%29.89 "HgN/A
11:20 AM43 °FPartly sunny.9 mph87%29.89 "HgN/A
10:50 AM41 °FPartly sunny.10 mph87%29.89 "HgN/A
10:20 AM41 °FPartly sunny.9 mph87%29.89 "HgN/A
9:50 AM39 °FPartly sunny.9 mph93%29.89 "HgN/A
9:20 AM39 °FBroken clouds.9 mph93%29.89 "HgN/A
8:50 AM39 °FBroken clouds.8 mph93%29.89 "HgN/A
8:20 AM39 °FBroken clouds.8 mph93%29.89 "HgN/A
7:50 AM39 °FLight rain. Broken clouds.7 mph87%29.89 "HgN/A
7:20 AM39 °FLight rain. Passing clouds.7 mph93%29.92 "Hg6 mi
6:50 AM39 °FPassing clouds.7 mph93%29.89 "Hg4 mi
6:20 AM37 °FPartly cloudy.6 mph100%29.89 "Hg4 mi
5:50 AM37 °FFog.3 mph93%29.89 "Hg3 mi
5:20 AM37 °FFog.2 mph93%29.89 "Hg1 mi
4:50 AM37 °FFog.3 mph100%29.92 "Hg2 mi
4:20 AM37 °FFog.3 mph93%29.92 "Hg3 mi
3:50 AM37 °FFog.3 mph100%29.92 "Hg3 mi
3:20 AM37 °FPassing clouds.1 mph93%29.92 "HgN/A
2:50 AM37 °FPassing clouds.2 mph93%29.92 "HgN/A
2:20 AM37 °FPassing clouds.1 mph93%29.92 "HgN/A
1:50 AM39 °FPassing clouds.2 mph87%29.92 "HgN/A
1:20 AM37 °FPassing clouds.2 mph93%29.95 "HgN/A
12:50 AM37 °FPassing clouds.3 mph93%29.95 "HgN/A
12:20 AM37 °FPassing clouds.1 mph93%29.95 "HgN/A
11:50 PM
Apr 18
39 °FSprinkles. Partly cloudy.3 mph87%29.95 "HgN/A
11:20 PM39 °FSprinkles. Passing clouds.5 mph87%29.95 "HgN/A
10:50 PM39 °FRain showers. Passing clouds.1 mph87%29.95 "HgN/A
10:20 PM39 °FSprinkles. Passing clouds.1 mph87%29.95 "HgN/A
9:50 PM39 °FSprinkles. Partly cloudy.2 mph87%29.95 "HgN/A
9:20 PM39 °FPartly cloudy.1 mph87%29.95 "HgN/A
8:50 PM39 °FBroken clouds.2 mph87%29.95 "HgN/A
8:20 PM39 °FBroken clouds.2 mph87%29.92 "HgN/A
7:50 PM39 °FBroken clouds.2 mph87%29.92 "HgN/A
7:20 PM39 °FPartly sunny.5 mph87%29.92 "HgN/A
6:50 PM41 °FPartly sunny.6 mph81%29.92 "HgN/A
6:20 PM41 °FBroken clouds.8 mph81%29.92 "HgN/A
5:50 PM43 °FBroken clouds.9 mph76%29.89 "HgN/A
5:20 PM43 °FBroken clouds.6 mph71%29.89 "HgN/A
4:50 PM43 °FBroken clouds.12 mph71%29.89 "HgN/A
4:20 PM43 °FBroken clouds.2 mph81%29.89 "HgN/A
3:20 PM41 °FPartly sunny.6 mph93%29.89 "HgN/A
2:50 PM41 °FPartly sunny.6 mph81%29.92 "HgN/A
2:20 PM43 °FLight rain. Partly sunny.14 mph81%29.89 "HgN/A
Weather by CustomWeather, © 2014

See weather overview